Location: Asheville, NC
(35.6000°N, 82.5500°W)
Time: 16:19:11
(UTC-05:00)

Tiangong 2 - Pass Details

Date: 11 December 2017
Orbit: 384 x 390 km, 42.8° (Epoch: 18 January)

Event Time Altitude Azimuth Distance (km) Brightness Sun altitude
Exits shadow 06:18:21 20° 243° (WSW) 953 2.6 -14.2°
Maximum altitude 06:19:16 23° 217° (SW) 869 2.7 -14.0°
Drops below altitude 10° 06:21:52 10° 162° (SSE) 1,403 4.4 -13.5°
Sets 06:24:11 0° 147° (SSE) 2,256 5.9 -13.0°
